Total_Precipitation_Accumulation
0.00 0.00 0.01 0.02 0.01 0.01 0.00 0.00 0.00 0.00 0.00 0.00 0.00 0.00 0.01 0.00 0.01 0.00 0.00 0.00 0.00 0.00 0.00 0.02 0.11 0.08 0.16 0.16 0.74 1.84 1.38 0.83 1.12 1.07 0.57 0.47 0.32 0.94 0.44 0.63 0.82 1.22 1.96 1.39 2.05 1.41 1.79 1.95 2.31 2.43 1.99 1.89 2.57 1.69 2.19 1.67 1.42 1.46 1.21 1.39 2.00 2.06 1.70 2.14 0.68 0.94 1.18 1.13 1.52 2.05 1.01 1.20 0.91 1.16 0.92 1.34 1.08 1.46 1.37 1.67 1.84 1.19 1.12 1.08 0.54 0.64
0.00 0.00 0.00 0.00 0.00 0.00 0.00 0.00 0.00 0.00 0.00 0.00 0.00 0.00 0.00 0.00 0.00 0.00 0.00 0.00 0.00 0.00 0.02 0.05 0.03 0.08 0.09 0.29 1.01 0.48 0.96 0.91 0.56 1.42 1.39 1.54 1.17 0.63 1.11 1.14 1.49 1.30 1.93 1.36 1.22 1.78 2.36 1.58 1.08 1.06 1.25 1.87 1.89 1.74 1.16 1.55 1.11 1.50 1.23 2.16 2.37 2.47 2.41 2.41 1.69 1.14 0.95 1.58 1.52 1.20 1.28 0.85 1.46 1.05 0.87 0.78 1.44 1.09 1.07 1.43 1.19 1.20 1.02 0.63 0.87 0.63
0.00 0.00 0.00 0.00 0.01 0.00 0.00 0.00 0.00 0.00 0.00 0.00 0.00 0.00 0.00 0.00 0.00 0.00 0.00 0.00 0.00 0.00 0.03 0.04 0.05 0.14 0.16 0.26 0.57 0.50 0.53 1.31 1.30 1.91 1.98 1.53 0.94 1.17 0.62 0.94 0.52 0.49 0.43 0.49 1.08 1.15 1.37 1.16 0.78 0.81 0.83 1.10 1.05 1.09 1.47 0.90 1.20 1.30 1.85 2.02 2.79 2.62 3.08 3.08 3.36 2.92 2.81 1.94 2.00 1.75 1.48 1.30 1.73 1.82 2.06 1.59 1.19 1.13 0.93 0.70 1.27 0.91 0.41 0.39 0.54 0.58
0.01 0.03 0.02 0.00 0.00 0.00 0.00 0.00 0.00 0.00 0.00 0.00 0.01 0.00 0.01 0.00 0.00 0.01 0.00 0.00 0.00 0.00 0.02 0.03 0.04 0.15 0.16 0.24 0.32 0.16 0.32 0.46 1.05 0.58 1.03 2.03 0.87 0.80 1.14 0.61 1.15 0.61 0.73 1.11 0.95 0.76 0.78 0.65 1.08 1.08 0.78 0.98 1.07 2.00 1.50 1.77 1.91 2.68 2.63 1.76 1.95 2.22 1.86 1.75 2.16 2.76 2.68 1.90 1.36 1.49 2.12 2.90 2.06 1.96 1.17 0.94 1.38 1.05 1.52 1.42 1.71 0.75 0.70 0.59 0.45 0.70
0.00 0.00 0.00 0.00 0.00 0.00 0.00 0.00 0.00 0.00 0.03 0.00 0.00 0.00 0.01 0.00 0.01 0.00 0.04 0.00 0.00 0.00 0.00 0.03 0.12 0.15 0.17 0.22 0.21 0.20 0.12 0.11 0.25 0.22 0.61 0.64 0.73 0.75 0.87 0.56 0.62 0.50 0.42 0.54 0.53 1.08 0.68 0.59 0.87 1.16 0.87 1.09 1.46 0.78 1.50 2.02 2.34 2.66 1.63 1.74 1.85 1.75 1.75 1.59 2.14 1.37 1.85 2.07 1.76 1.63 1.88 2.27 1.37 1.29 1.46 1.73 1.45 0.99 1.21 1.40 1.20 0.62 0.30 0.22 0.25 1.10
0.00 0.01 0.00 0.00 0.00 0.00 0.00 0.01 0.00 0.00 0.00 0.01 0.00 0.00 0.00 0.00 0.00 0.00 0.00 0.01 0.01 0.03 0.10 0.05 0.21 0.25 0.26 0.30 0.23 0.33 0.30 0.24 0.26 0.34 0.47 0.46 0.64 0.40 0.82 0.81 0.50 0.37 0.64 0.98 0.53 0.65 0.75 0.61 1.01 0.90 1.30 1.85 2.14 1.68 1.19 1.49 1.85 2.16 1.62 1.59 2.48 1.73 1.89 2.06 2.70 2.14 2.07 1.79 1.23 1.38 1.27 1.07 0.87 1.17 1.25 1.78 0.91 0.73 0.73 0.64 0.54 0.62 0.34 0.32 0.26 0.54
0.00 0.00 0.00 0.00 0.00 0.00 0.00 0.00 0.00 0.00 0.02 0.00 0.01 0.00 0.00 0.00 0.00 0.00 0.01 0.01 0.02 0.02 0.06 0.00 0.06 0.17 0.19 0.22 0.21 0.35 0.29 0.37 0.39 0.48 0.67 0.58 0.42 0.43 0.73 0.90 0.87 0.63 0.49 0.54 0.59 0.48 0.80 1.18 0.96 0.49 1.13 2.01 1.39 1.60 1.19 1.27 2.05 1.14 1.01 1.40 2.24 2.42 1.24 1.79 1.52 1.25 1.02 1.12 1.07 0.90 0.95 1.23 1.06 0.79 1.79 1.06 0.94 0.59 0.60 0.46 0.54 0.62 0.95 0.73 0.73 0.78
0.00 0.00 0.00 0.00 0.00 0.00 0.01 0.02 0.00 0.00 0.01 0.03 0.00 0.00 0.00 0.01 0.00 0.00 0.01 0.00 0.03 0.00 0.00 0.00 0.01 0.12 0.27 0.09 0.07 0.20 0.29 0.24 0.52 0.53 0.31 0.41 0.37 0.41 0.63 1.13 1.07 0.38 0.52 0.60 0.41 0.97 1.26 0.98 0.78 0.65 1.08 1.44 1.65 1.76 1.14 1.75 2.05 1.53 1.03 1.03 2.09 1.19 1.53 1.34 1.23 0.84 0.61 1.41 1.17 1.10 1.12 1.44 1.42 1.13 1.56 0.52 0.50 0.66 0.49 0.72 0.63 1.02 1.44 0.89 1.02 1.05
0.00 0.01 0.01 0.00 0.01 0.01 0.02 0.01 0.00 0.01 0.01 0.01 0.00 0.00 0.00 0.00 0.00 0.00 0.00 0.02 0.01 0.04 0.07 0.03 0.02 0.09 0.11 0.13 0.07 0.25 0.35 0.25 0.43 0.34 0.24 0.35 0.47 0.71 0.65 0.67 0.70 0.92 0.89 1.06 1.71 0.94 1.53 0.75 1.53 1.25 0.72 1.01 1.12 1.04 1.43 2.16 3.03 1.96 1.40 1.29 1.72 1.33 1.34 0.81 1.06 1.04 1.29 1.47 1.39 1.49 1.71 1.51 1.46 1.26 1.04 0.50 0.19 0.20 0.29 0.40 0.99 0.95 1.78 1.70 1.51 1.41
0.01 0.00 0.01 0.01 0.02 0.02 0.00 0.01 0.00 0.00 0.01 0.00 0.00 0.00 0.00 0.00 0.00 0.00 0.01 0.02 0.04 0.02 0.04 0.03 0.03 0.04 0.23 0.09 0.19 0.22 0.16 0.16 0.24 0.26 0.47 0.59 1.11 0.54 0.69 0.38 0.38 0.55 0.31 0.47 0.57 0.73 0.90 1.63 1.35 0.76 0.36 0.75 1.23 2.64 2.45 2.97 3.03 1.72 1.51 1.46 0.93 1.35 1.30 1.30 1.26 0.79 1.00 0.79 1.59 1.79 2.06 1.56 1.50 1.46 0.50 0.50 0.56 0.42 0.67 0.41 1.19 1.35 0.79 0.97 0.77 0.83
0.01 0.00 0.00 0.01 0.01 0.00 0.00 0.01 0.00 0.00 0.00 0.00 0.00 0.00 0.00 0.00 0.01 0.00 0.00 0.02 0.12 0.03 0.02 0.03 0.01 0.02 0.22 0.18 0.14 0.16 0.16 0.12 0.19 0.23 0.21 0.27 0.36 0.51 0.60 0.93 0.83 0.30 0.33 0.44 0.75 0.80 1.44 1.85 1.34 0.72 0.83 1.40 1.75 2.66 2.66 3.42 1.68 1.46 1.48 1.76 1.50 0.95 1.33 1.35 1.11 0.67 0.87 1.10 0.89 1.40 1.37 1.70 1.52 0.70 0.71 0.72 0.45 0.56 0.87 0.44 0.67 0.71 0.57 0.44 0.50 0.49
0.01 0.04 0.07 0.02 0.00 0.00 0.00 0.00 0.01 0.00 0.00 0.00 0.03 0.02 0.01 0.01 0.00 0.01 0.01 0.02 0.06 0.02 0.02 0.03 0.03 0.06 0.17 0.30 0.23 0.13 0.07 0.10 0.12 0.12 0.16 0.13 0.23 0.32 0.20 0.25 0.22 0.27 0.31 0.40 0.51 0.88 1.41 0.79 0.87 0.69 0.96 1.41 3.16 3.28 3.08 1.78 1.27 1.33 1.33 1.53 1.25 1.19 0.83 1.05 1.50 1.30 1.34 1.69 1.18 1.86 1.77 1.09 0.98 0.76 0.50 0.48 0.28 0.30 0.42 0.40 0.60 0.34 0.29 0.43 0.68 1.30
0.08 0.10 0.04 0.03 0.03 0.00 0.01 0.02 0.00 0.00 0.00 0.01 0.03 0.05 0.11 0.14 0.04 0.08 0.03 0.04 0.01 0.03 0.01 0.01 0.02 0.06 0.09 0.23 0.53 0.15 0.11 0.08 0.07 0.10 0.18 0.12 0.13 0.13 0.08 0.12 0.54 0.27 0.43 0.65 0.66 0.78 0.93 0.95 0.86 1.10 1.93 1.31 1.02 2.52 2.25 1.53 1.67 1.11 1.26 1.58 1.69 1.96 1.25 1.79 1.69 1.40 2.04 2.33 1.96 2.57 1.47 0.63 0.74 0.40 0.41 0.28 0.28 0.92 0.63 0.56 0.62 0.48 0.55 0.38 0.66 0.46
0.07 0.10 0.02 0.07 0.00 0.01 0.00 0.06 0.03 0.05 0.03 0.06 0.06 0.10 0.09 0.12 0.13 0.08 0.12 0.06 0.09 0.02 0.02 0.01 0.02 0.08 0.28 0.22 0.25 0.14 0.12 0.07 0.04 0.06 0.12 0.07 0.06 0.08 0.09 0.10 0.17 0.19 0.48 0.56 0.77 0.67 0.76 0.63 1.29 1.03 0.81 0.74 0.98 1.97 2.16 1.29 1.15 1.76 1.44 1.40 1.91 1.80 1.24 2.10 2.15 1.55 1.15 2.34 2.52 1.63 0.75 0.40 0.35 0.29 0.34 0.64 0.21 0.18 0.29 0.58 0.24 0.38 0.24 0.30 0.43 0.77
0.27 0.49 0.05 0.01 0.17 0.00 0.01 0.00 0.04 0.05 0.03 0.12 0.03 0.02 0.13 0.19 0.11 0.09 0.09 0.13 0.10 0.16 0.08 0.05 0.03 0.15 0.14 1.32 0.27 0.10 0.10 0.04 0.03 0.11 0.06 0.09 0.09 0.16 0.09 0.20 0.19 0.26 0.17 0.25 0.32 0.50 1.05 1.32 1.18 0.91 1.17 0.98 0.79 1.65 1.41 1.01 0.96 0.83 0.84 1.31 1.80 2.04 1.82 1.82 2.18 1.14 1.69 1.95 1.10 1.49 1.04 0.69 0.41 0.29 0.34 0.47 0.37 0.41 0.14 0.23 0.67 0.27 0.24 0.40 0.57 0.75
0.10 0.16 0.06 0.01 0.01 0.00 0.02 0.01 0.01 0.04 0.05 0.01 0.04 0.08 0.11 0.11 0.09 0.15 0.25 0.09 0.23 0.14 0.09 0.12 0.14 0.28 0.50 0.85 0.94 0.66 0.08 0.02 0.05 0.08 0.04 0.07 0.08 0.10 0.15 0.16 0.21 0.21 0.21 0.39 0.58 1.11 1.25 1.25 1.23 1.08 0.90 0.89 0.77 0.86 0.67 0.49 0.62 1.20 1.10 1.17 1.82 2.40 2.58 2.41 2.31 2.40 2.87 1.89 0.79 0.58 0.45 0.49 0.56 0.53 0.38 0.30 0.42 0.43 0.18 0.33 0.26 0.66 0.36 0.82 0.22 0.15
0.03 0.31 0.01 0.03 0.00 0.01 0.04 0.00 0.00 0.00 0.44 0.15 0.01 0.06 0.04 0.07 0.11 0.27 0.05 0.03 0.01 0.02 0.06 0.03 0.24 0.36 0.20 0.46 0.68 0.56 0.05 0.08 0.14 0.07 0.05 0.27 0.39 0.52 0.62 0.84 0.92 0.88 0.79 0.98 1.31 1.35 1.18 1.23 1.07 1.11 0.74 0.76 0.42 0.47 0.47 0.71 1.10 1.01 1.05 0.85 0.81 1.04 0.99 2.11 1.74 1.53 2.30 1.71 1.23 1.23 0.81 0.58 0.61 0.47 0.27 0.17 0.09 0.25 0.43 0.49 0.50 0.32 0.29 0.63 0.72 0.58
0.15 0.39 0.01 0.01 0.02 0.00 0.00 0.00 0.00 0.00 0.00 0.05 0.05 0.15 0.09 0.03 0.10 0.10 0.19 0.05 0.06 0.08 0.17 0.04 0.13 0.41 0.12 0.80 0.67 0.52 0.37 0.25 0.22 0.25 0.43 0.44 0.54 0.62 0.79 0.75 0.87 1.01 1.08 0.83 0.95 0.79 0.76 0.66 0.91 0.94 0.67 0.85 0.55 1.06 0.59 0.55 0.82 0.76 1.14 1.12 0.75 1.11 1.44 1.38 1.42 1.13 1.07 1.21 1.58 0.99 0.72 0.68 0.48 0.44 0.29 0.29 0.22 0.31 0.67 0.57 0.90 0.49 0.57 0.25 0.25 0.39
0.09 0.34 0.05 0.00 0.00 0.01 0.01 0.00 0.01 0.00 0.00 0.03 0.13 0.04 0.19 0.43 0.20 0.07 0.06 0.17 0.16 0.08 0.13 0.10 0.11 0.19 0.27 0.63 0.42 0.62 0.57 0.36 0.28 0.25 0.18 0.16 0.15 0.37 0.72 0.98 0.93 0.56 0.59 0.55 0.72 0.70 0.44 0.55 0.50 0.66 0.57 0.49 1.01 1.18 0.63 0.95 1.13 0.55 0.67 0.50 0.41 1.22 1.78 1.92 1.89 1.55 2.02 1.31 1.86 1.04 0.67 0.66 0.45 0.86 0.80 0.58 0.55 0.77 0.73 0.43 0.61 0.38 0.25 0.52 0.52 0.37
0.04 0.23 0.19 0.01 0.01 0.10 0.01 0.00 0.15 0.07 0.02 0.01 0.03 0.28 0.16 0.10 0.20 0.27 0.12 0.29 0.18 0.34 0.04 0.29 0.07 0.19 0.25 0.41 0.30 0.40 0.33 0.46 0.32 0.24 0.35 0.37 0.48 0.34 0.36 0.27 0.40 0.42 0.58 0.65 0.72 0.74 0.65 0.57 0.90 0.79 0.76 0.74 0.77 0.45 0.61 1.16 1.47 1.29 1.75 0.68 0.78 1.07 2.17 0.78 0.48 1.48 1.35 0.91 0.54 0.81 0.79 0.65 0.51 0.31 0.50 0.67 0.48 0.48 0.46 0.18 0.33 0.39 0.53 0.39 0.53 0.41
0.23 0.08 0.46 0.13 0.03 0.05 0.21 0.02 0.11 0.09 0.12 0.15 0.08 0.29 0.12 0.11 0.21 0.11 0.24 0.15 0.19 0.18 0.17 0.14 0.27 0.59 0.48 0.37 0.32 0.50 0.32 0.24 0.59 0.51 0.37 0.50 0.54 0.71 0.63 0.37 0.42 0.45 0.47 0.43 0.64 0.51 0.83 0.76 0.79 0.80 0.74 0.88 0.83 0.70 1.40 1.61 1.64 1.83 1.88 1.43 2.24 2.27 1.66 1.66 1.53 1.61 1.53 1.18 0.74 0.53 0.63 0.56 0.37 0.19 0.32 0.70 0.78 0.32 0.13 0.39 0.30 0.50 0.32 0.39 0.30 0.24
0.17 0.26 0.32 0.17 0.38 0.15 0.10 0.02 0.05 0.17 0.12 0.28 0.14 0.18 0.13 0.21 0.25 0.26 0.34 0.01 0.07 0.11 0.26 0.17 0.22 0.41 0.66 0.40 0.91 0.47 0.25 0.60 0.65 0.69 0.69 0.55 0.49 0.36 0.33 0.50 0.40 0.57 0.42 0.33 0.26 0.54 0.54 0.63 1.04 0.90 0.88 1.07 1.19 1.08 0.83 0.90 0.75 0.69 1.04 1.71 1.87 2.54 2.31 2.40 2.32 2.06 2.46 1.69 1.84 1.40 1.85 1.14 1.48 0.86 0.31 0.34 1.04 0.77 0.68 0.44 0.38 0.44 0.34 0.33 0.55 0.29
0.23 0.35 0.46 0.27 0.34 0.50 0.09 0.12 0.06 0.24 0.14 0.13 0.16 0.20 0.22 0.30 0.20 0.32 0.34 0.27 0.20 0.11 0.07 0.33 0.34 0.72 0.63 0.85 0.47 0.54 0.27 0.29 0.62 0.76 1.20 0.60 0.63 0.33 0.25 0.26 0.63 0.53 0.48 0.42 0.48 0.52 1.13 0.69 0.81 0.79 0.85 1.10 0.89 1.02 1.54 1.25 1.56 1.86 1.62 2.40 2.64 2.38 2.69 2.52 2.46 2.44 1.68 2.09 1.67 1.63 1.19 1.12 1.13 1.01 0.82 0.72 0.80 0.86 1.10 1.07 0.57 0.84 0.55 0.52 0.66 0.69
0.29 0.44 0.57 0.39 0.18 0.16 0.17 0.06 0.09 0.49 0.09 0.12 0.19 0.16 0.24 0.44 0.28 0.27 0.26 0.41 0.48 0.39 0.42 0.43 0.28 1.03 1.24 1.15 0.64 0.46 0.40 0.34 0.38 0.98 0.64 0.92 0.76 0.57 0.34 0.24 0.24 0.36 0.42 0.41 0.49 1.10 1.11 1.12 0.71 0.93 0.55 0.61 0.32 0.84 1.20 2.03 2.56 2.03 2.42 1.73 2.38 2.27 1.45 1.78 1.53 1.53 1.64 1.95 1.43 0.89 0.91 1.00 0.56 0.38 0.35 0.26 0.15 0.29 0.65 0.51 0.50 0.30 0.16 0.15 0.59 0.79
0.78 1.07 0.61 0.97 0.55 0.50 0.45 0.24 0.30 0.11 0.25 0.18 0.29 0.20 0.18 0.18 0.18 0.26 0.29 0.40 0.44 0.29 0.48 0.44 0.66 0.58 0.90 0.59 0.42 0.52 0.29 0.73 0.77 0.85 0.96 0.90 0.98 0.59 0.35 0.19 0.17 0.23 0.62 0.47 0.79 1.11 0.93 0.79 0.58 0.53 0.50 0.48 0.65 0.90 1.37 2.07 2.37 1.75 2.08 2.20 2.16 1.55 1.27 1.40 1.51 1.31 1.86 1.82 1.53 1.26 1.12 0.96 0.81 0.38 0.49 0.81 0.63 0.44 0.50 0.63 0.31 0.19 0.25 0.19 0.25 0.25
0.49 0.96 1.04 1.18 1.15 1.23 1.25 1.12 1.18 0.82 0.55 0.31 0.16 0.15 0.15 0.12 0.17 0.25 0.25 0.32 0.29 0.34 0.37 0.63 0.52 0.66 0.73 0.42 0.42 0.79 0.83 0.88 0.98 0.70 0.74 0.87 0.74 0.67 0.93 0.32 0.75 0.51 0.40 0.46 0.46 0.73 1.10 0.90 0.84 0.77 0.85 0.76 0.87 0.94 1.04 0.90 1.12 0.99 0.91 1.41 1.59 3.10 1.68 1.63 1.94 1.78 1.31 1.50 2.05 1.81 1.57 1.31 1.26 1.14 0.76 0.56 0.88 1.00 0.73 0.77 0.49 0.38 0.18 0.17 0.23 0.14
0.52 0.68 0.74 0.91 1.12 0.98 1.01 0.82 0.85 0.34 0.60 0.65 0.41 0.25 0.21 0.21 0.26 0.25 0.26 0.31 0.54 0.41 0.34 0.55 0.63 0.77 0.64 0.57 0.34 0.38 0.46 0.43 0.53 0.51 0.75 0.67 0.84 0.55 0.68 1.18 0.85 1.06 1.11 1.16 0.88 0.82 0.88 0.98 0.74 0.88 1.09 1.46 1.57 2.51 2.84 2.41 1.97 1.59 1.35 2.37 1.67 1.47 2.36 2.75 2.17 1.38 1.48 1.74 1.68 2.09 1.62 1.09 0.77 1.09 0.95 1.04 1.10 0.84 0.65 0.66 0.63 0.46 0.25 0.33 0.33 0.49
0.39 0.57 0.78 1.28 1.25 0.89 0.70 0.64 0.80 0.44 0.72 0.43 0.27 0.32 0.20 0.17 0.38 0.19 0.22 0.48 0.54 0.34 0.62 0.60 0.50 0.50 0.70 0.51 0.54 0.47 0.50 0.37 0.35 0.38 0.26 0.29 0.49 0.90 1.30 0.54 0.46 0.39 0.55 0.58 0.46 0.55 1.01 1.41 1.13 1.23 1.05 1.42 1.59 2.16 1.60 0.90 1.00 1.44 2.17 2.21 1.85 1.73 1.24 0.91 1.32 1.67 1.97 1.92 1.83 1.68 1.80 2.03 1.74 1.89 1.22 1.05 1.13 1.14 0.84 0.64 0.56 1.16 1.15 0.88 0.52 0.62
0.54 0.51 0.68 0.59 0.85 1.00 0.56 0.62 0.58 0.78 0.53 0.40 0.26 0.19 0.44 0.35 0.15 0.35 0.21 0.44 0.57 0.52 0.92 0.75 0.65 0.53 0.73 0.71 0.66 0.80 0.51 0.47 0.45 0.41 0.32 0.27 0.23 0.28 0.52 0.57 0.66 0.72 0.86 0.62 0.46 0.31 0.33 0.46 0.59 0.82 1.38 1.38 2.09 2.42 1.00 0.84 1.03 1.32 1.12 1.53 1.44 1.22 1.15 1.21 2.33 2.60 1.47 1.32 2.25 2.61 2.87 2.77 2.58 2.15 1.28 1.07 0.96 1.00 1.07 0.64 0.63 0.92 1.56 1.08 0.98 0.92
0.26 0.37 1.20 0.57 0.71 0.76 0.74 0.52 0.52 0.44 0.43 0.42 0.24 0.22 0.34 0.21 0.30 0.23 0.23 0.28 0.38 0.39 0.39 0.36 0.33 0.34 0.47 0.61 0.62 0.71 0.51 0.36 0.34 0.25 0.19 0.13 0.17 0.20 0.26 0.24 0.52 0.48 0.34 0.33 0.40 0.41 0.35 0.22 0.26 0.41 1.09 1.52 1.17 1.42 0.61 1.02 1.18 0.63 1.23 1.33 1.52 1.05 1.47 2.98 1.98 1.19 1.81 2.39 1.93 1.93 2.01 1.97 2.02 1.60 1.13 0.76 0.53 0.30 0.36 0.40 0.48 0.39 0.45 0.33 0.52 0.44
0.32 0.54 0.22 0.59 0.74 0.83 0.99 0.90 0.53 0.31 0.36 0.49 0.22 0.18 0.23 0.18 0.29 0.27 0.19 0.20 0.14 0.34 0.32 0.21 0.23 0.38 0.63 0.42 0.56 0.78 0.44 0.21 0.25 0.48 0.19 0.16 0.16 0.17 0.21 0.22 0.28 0.35 0.42 0.32 0.36 0.39 0.40 0.37 0.22 0.22 0.42 0.76 0.83 0.88 0.63 0.46 1.22 0.65 0.84 1.41 1.26 0.96 1.05 1.35 1.76 2.25 2.54 2.90 2.01 1.70 1.33 1.18 0.99 1.19 1.15 0.65 0.37 0.37 0.31 0.26 0.45 0.88 0.51 0.76 0.39 0.36
0.43 0.53 0.31 0.52 1.00 0.78 0.72 0.82 1.41 0.73 0.49 0.64 0.83 0.55 0.47 0.28 0.46 0.46 0.39 0.50 0.46 0.64 0.82 0.59 0.53 0.78 0.74 0.35 0.83 0.55 0.52 0.36 0.42 0.58 0.67 0.66 0.52 0.59 0.54 0.50 0.31 0.26 0.31 0.46 0.47 0.48 0.56 0.45 0.38 0.40 0.26 0.35 0.48 0.65 0.71 0.59 0.96 0.91 0.82 1.10 1.24 1.96 2.67 1.53 2.08 2.11 2.06 1.59 1.96 2.78 2.20 2.07 1.77 1.64 1.47 0.94 0.66 1.25 0.42 0.33 0.95 0.71 0.43 0.36 0.27 0.37
0.70 0.60 0.69 0.76 0.71 0.63 0.80 0.69 0.88 0.86 0.86 1.10 0.84 0.57 0.48 0.47 0.47 0.47 0.31 0.26 0.59 0.76 0.97 0.94 1.19 0.76 0.60 0.51 0.57 0.74 0.60 0.63 0.89 0.65 0.96 0.73 0.55 0.56 0.51 0.39 0.32 0.31 0.32 0.21 0.32 0.35 0.44 0.50 0.48 0.46 0.45 0.36 0.33 0.49 0.84 1.02 1.49 1.23 1.09 0.87 0.92 1.17 1.48 1.37 2.10 2.43 2.12 2.65 2.46 2.80 2.14 1.95 1.63 2.00 1.40 1.48 0.81 1.07 2.72 1.62 0.84 0.84 0.51 0.29 0.13 0.17
0.37 0.74 0.64 0.89 0.79 0.87 0.67 0.88 0.88 1.13 1.28 1.32 0.93 0.37 0.33 0.57 0.58 0.79 0.63 0.49 0.41 0.42 0.86 0.96 1.05 0.72 0.49 0.68 0.63 0.63 0.93 0.93 0.77 0.93 0.87 0.94 0.84 0.61 0.62 0.54 0.28 0.21 0.31 0.33 1.04 0.52 0.36 0.46 0.35 0.40 0.44 0.46 0.50 0.52 0.58 0.66 0.79 1.12 1.10 1.56 1.29 0.81 1.22 1.59 1.42 1.58 1.81 1.91 1.67 1.77 1.90 1.94 2.56 2.03 1.77 1.44 1.11 1.34 1.12 0.64 0.63 1.23 0.79 0.61 0.73 0.33
0.33 0.43 0.56 0.92 0.68 0.70 0.91 1.12 1.19 1.56 1.45 0.92 0.60 1.14 0.37 0.56 0.39 0.64 0.58 0.46 0.55 0.67 0.93 0.68 0.70 0.64 0.68 0.57 0.67 0.70 0.79 0.71 0.95 0.95 0.83 0.89 0.80 0.62 0.53 0.58 0.58 0.64 0.51 0.41 0.55 0.79 0.56 0.68 0.59 0.65 0.82 0.57 0.48 0.43 0.46 0.63 0.69 0.92 0.96 0.90 1.03 1.24 1.29 1.33 1.57 1.30 1.26 1.57 1.86 1.65 1.46 1.76 1.84 2.41 2.03 1.92 1.93 2.27 2.46 1.35 1.46 1.10 0.80 1.23 0.70 0.88
0.19 0.24 0.44 0.45 0.44 0.85 1.02 1.38 1.26 0.95 1.31 1.17 1.34 1.23 0.96 1.02 0.92 0.69 0.71 0.48 0.63 0.92 0.89 0.97 0.89 0.65 0.60 0.66 0.55 0.64 0.60 1.13 0.53 0.54 0.65 0.65 0.52 0.51 0.51 0.40 0.45 0.41 0.52 0.43 0.53 0.75 0.98 0.75 1.04 1.39 1.18 0.87 0.79 0.84 0.60 0.50 0.60 0.67 1.00 0.89 0.92 1.20 1.32 1.64 1.61 1.41 1.24 1.28 1.42 1.75 1.85 2.05 1.88 2.11 2.53 2.03 2.04 2.23 2.00 1.91 2.04 1.58 1.47 1.27 1.21 0.94
0.21 0.39 0.45 0.87 0.44 0.88 0.96 1.09 1.16 1.53 1.19 1.01 1.09 1.16 1.13 1.46 1.02 0.92 0.94 0.63 0.59 0.92 0.97 1.34 1.25 1.02 0.60 0.53 0.62 0.75 0.75 0.50 0.55 0.81 0.89 0.82 0.65 0.59 0.53 0.46 0.35 0.38 0.35 0.51 0.70 0.55 0.40 0.67 0.94 1.02 1.03 0.97 1.22 0.81 0.81 0.72 0.75 0.62 0.56 1.00 0.95 0.79 0.92 1.09 1.54 1.95 2.07 1.74 1.40 1.45 1.37 1.71 1.79 2.69 2.30 2.58 1.67 1.85 2.04 2.41 1.84 1.61 1.28 1.30 1.40 1.16
0.38 0.50 0.67 0.62 0.84 0.36 1.12 1.14 1.19 1.40 1.26 1.52 1.21 1.09 0.65 0.99 0.67 0.90 0.79 0.63 0.51 0.86 0.97 1.39 1.41 1.54 1.22 0.85 0.76 0.86 0.75 0.65 0.67 0.92 1.29 1.20 1.01 0.77 0.53 0.37 0.31 0.36 0.48 0.64 0.45 0.54 0.90 1.27 1.20 0.90 1.10 1.04 0.77 0.90 0.95 0.93 0.94 0.76 0.95 1.08 1.14 1.62 1.47 0.93 1.07 1.27 1.79 1.90 2.01 2.06 1.60 1.54 1.92 1.30 1.86 2.00 2.22 1.63 1.52 2.03 1.97 2.03 1.55 1.53 1.31 1.23
0.32 0.32 0.48 0.41 0.80 0.38 0.57 1.08 1.26 1.18 1.35 1.30 1.43 1.09 0.83 0.57 0.55 0.95 0.64 1.02 0.88 0.82 0.98 1.26 1.18 1.10 1.18 1.22 1.13 1.03 1.24 1.22 1.23 1.47 1.59 1.49 1.07 0.81 0.60 0.41 0.40 0.28 0.25 0.32 0.34 0.40 0.37 0.38 0.44 0.59 0.65 0.69 0.73 0.46 0.29 0.38 0.43 0.50 0.57 0.46 0.66 0.79 0.84 1.04 1.52 1.37 1.52 1.68 1.93 1.87 1.91 1.94 2.35 1.89 1.56 2.13 1.98 1.59 1.38 1.21 1.35 1.66 1.89 1.65 1.67 1.77
0.39 0.57 0.73 0.38 0.46 0.36 0.53 0.67 1.45 1.27 1.35 1.18 1.20 1.07 0.70 0.52 0.78 1.04 0.82 1.06 1.11 1.09 1.24 1.63 1.29 1.06 1.28 1.51 1.77 1.63 1.64 2.67 1.98 1.83 1.46 0.94 0.95 0.98 0.74 0.48 0.45 0.43 0.49 0.51 0.32 0.39 0.35 0.30 0.23 0.21 0.25 0.33 0.31 0.17 0.24 0.13 0.14 0.13 0.16 0.12 0.18 0.31 0.29 0.32 0.43 0.57 1.01 1.31 1.67 1.97 1.89 1.73 2.45 2.68 2.87 3.41 3.90 3.03 2.97 2.53 2.02 1.49 1.87 2.29 2.10 2.69
0.42 0.63 0.23 0.72 0.69 0.70 0.33 0.48 0.65 0.92 0.78 0.96 1.01 0.94 0.63 0.29 0.52 0.73 1.64 2.19 1.37 1.40 1.54 1.69 1.24 1.30 1.28 1.30 1.86 2.30 1.95 2.30 2.17 1.51 1.02 0.88 0.74 0.73 0.74 0.72 0.67 0.53 0.57 0.72 0.90 0.56 0.44 0.38 0.35 0.34 0.31 0.26 0.16 0.11 0.13 0.15 0.13 0.09 0.10 0.20 0.16 0.19 0.20 0.30 0.39 0.60 0.50 0.59 0.82 1.32 1.81 1.89 1.95 1.93 1.82 2.50 3.89 2.99 2.34 2.57 2.62 2.22 2.02 2.90 2.77 1.91
0.37 0.29 0.79 0.34 0.68 0.84 0.69 0.86 0.89 0.96 1.28 1.15 1.18 1.09 1.06 0.73 1.37 1.75 1.59 1.30 1.32 1.07 1.14 1.40 1.34 1.65 1.46 2.00 1.50 1.50 1.65 1.73 1.59 1.20 1.03 1.14 1.02 0.92 0.82 1.06 0.87 0.88 1.09 0.95 1.08 0.94 0.80 0.59 0.48 0.41 0.30 0.25 0.21 0.14 0.10 0.10 0.17 0.11 0.15 0.10 0.08 0.11 0.21 0.29 0.18 0.18 0.26 0.39 0.47 0.56 0.81 1.36 2.18 2.07 2.39 2.63 3.14 2.46 1.96 1.92 2.02 1.94 2.72 2.78 1.86 2.22
0.41 0.67 0.57 0.79 0.34 0.54 0.69 0.94 1.38 1.78 1.98 1.04 1.63 1.74 1.98 2.10 1.92 1.68 1.16 0.94 0.83 0.94 1.00 1.06 1.45 1.70 1.38 1.43 1.17 1.06 1.19 1.10 1.20 1.23 0.99 1.18 1.29 1.32 1.12 1.28 1.32 1.45 1.23 1.56 1.11 1.02 0.87 1.17 0.84 0.64 0.58 0.46 0.33 0.21 0.18 0.16 0.16 0.11 0.10 0.14 0.10 0.09 0.10 0.14 0.20 0.14 0.15 0.19 0.37 0.86 0.93 0.80 2.00 2.22 2.81 2.51 1.87 1.75 2.04 1.85 1.71 1.83 1.79 1.77 1.67 1.62
0.48 1.06 0.64 0.66 0.73 1.18 0.98 1.16 1.70 1.59 1.55 1.68 1.82 2.50 2.71 2.35 1.66 1.43 1.10 1.42 0.98 1.04 1.10 1.11 1.51 1.23 1.61 1.71 1.55 1.36 1.00 1.02 0.96 1.14 0.87 0.92 1.15 1.11 1.20 1.14 1.24 1.69 1.23 1.22 1.51 1.31 1.28 1.32 0.93 0.72 1.12 0.87 0.72 0.49 0.49 0.38 0.33 0.21 0.13 0.14 0.14 0.13 0.11 0.09 0.11 0.60 0.88 0.91 0.88 0.80 1.12 1.29 1.21 0.92 1.09 1.89 3.28 2.25 1.73 1.69 1.95 1.75 1.67 1.61 1.71 1.72
0.42 0.63 0.72 1.17 0.75 1.16 1.08 1.02 0.84 0.80 0.96 1.34 1.73 1.86 2.17 1.93 1.57 1.17 0.87 1.35 1.74 1.59 0.83 0.98 1.09 1.23 1.27 0.92 0.90 1.04 1.25 1.00 1.04 0.92 0.65 0.69 1.25 1.12 1.20 1.21 1.14 1.53 1.53 1.45 1.43 1.58 1.63 1.46 1.30 1.25 1.23 1.56 1.10 0.96 0.78 0.83 0.68 0.42 0.36 0.32 0.40 0.41 0.43 0.78 0.81 0.90 0.79 0.74 0.71 0.56 0.48 0.55 0.43 0.39 0.33 0.55 1.06 2.03 1.39 1.73 1.97 2.15 2.30 2.09 2.02 1.97
0.35 0.21 0.27 0.30 0.48 0.34 0.74 0.68 0.67 0.77 0.62 0.84 1.18 1.46 1.88 1.68 1.57 1.04 0.74 1.00 0.89 1.15 1.04 0.96 1.07 0.90 1.07 0.97 0.80 0.65 0.75 1.10 0.94 0.53 0.70 0.97 1.16 1.02 1.13 1.33 1.56 1.42 1.06 1.29 1.71 1.72 1.94 1.95 1.93 1.58 1.31 1.35 1.55 1.98 1.21 1.57 1.08 1.33 1.34 1.47 1.25 1.26 1.26 1.39 1.19 1.02 0.88 0.80 0.75 0.85 1.16 1.02 0.75 0.31 0.61 0.84 0.79 1.77 1.46 0.89 1.61 1.87 1.95 2.09 1.88 1.70
0.17 0.10 0.17 0.23 0.36 0.26 0.62 0.52 0.49 0.49 0.65 0.67 0.85 1.25 1.48 1.73 1.90 1.86 1.46 1.05 0.86 0.84 0.96 0.84 0.80 0.79 0.90 0.74 0.79 0.76 0.72 0.90 0.81 0.59 0.88 0.90 0.85 0.95 1.16 1.56 1.65 1.77 1.80 1.68 2.12 2.01 1.80 2.29 3.15 3.59 3.34 2.79 2.53 3.06 2.99 1.97 2.03 1.84 1.90 2.06 1.55 1.90 1.95 1.49 1.29 1.23 1.07 0.93 0.74 0.88 1.01 0.91 1.06 1.47 1.44 0.99 1.38 1.58 2.33 1.26 1.15 1.19 1.21 1.17 1.37 1.57
0.31 0.13 0.21 0.20 0.28 0.40 0.59 0.53 0.47 0.28 0.78 0.58 0.69 1.22 1.12 0.94 1.14 1.55 1.34 1.03 0.92 0.77 0.70 0.96 0.73 0.98 0.79 0.91 0.81 0.87 0.81 0.71 0.75 0.97 0.68 1.08 1.20 1.34 1.58 1.92 2.05 1.68 1.85 1.90 1.51 1.73 1.90 1.98 2.44 3.05 3.48 3.22 3.43 3.29 3.72 4.18 3.64 3.37 2.46 2.18 1.72 1.69 2.01 1.81 1.56 1.54 1.25 1.39 1.05 0.98 0.99 1.01 0.86 0.80 0.88 0.99 0.92 1.10 2.09 1.25 1.30 1.33 1.21 1.46 1.31 1.25
0.36 0.11 0.38 0.14 0.26 0.35 0.13 0.19 0.38 0.47 0.27 0.33 0.32 0.76 0.75 0.73 0.87 1.40 1.32 0.93 1.31 0.86 0.53 0.45 0.66 0.80 1.04 0.99 0.59 0.53 0.82 0.93 0.71 0.77 0.81 1.08 1.12 1.51 1.65 1.89 2.07 2.19 1.50 2.03 2.11 1.52 1.49 1.84 2.17 2.54 2.68 3.13 2.70 2.79 2.97 3.46 3.82 4.42 3.24 3.12 2.15 1.49 0.83 1.07 1.08 1.01 1.36 1.34 1.38 1.53 1.72 1.68 1.87 1.65 0.98 0.55 0.87 1.24 1.51 1.57 0.67 0.72 1.15 1.82 2.89 2.33
0.17 0.34 0.21 0.10 0.19 0.37 0.46 0.56 0.23 0.68 0.42 0.64 0.63 0.52 0.58 0.75 0.82 0.96 1.01 0.96 0.93 1.19 0.58 0.53 0.75 0.91 1.50 1.53 1.14 0.68 0.57 0.98 1.23 1.28 1.18 0.80 1.27 1.66 1.75 1.38 1.25 1.43 1.68 1.61 1.37 1.24 1.41 1.48 1.73 2.14 2.43 2.27 2.01 1.70 1.95 2.43 2.49 3.02 3.69 3.55 3.43 2.29 1.88 1.64 2.08 2.01 1.58 1.20 1.00 0.69 1.11 1.20 1.05 0.59 0.50 0.43 0.61 0.46 0.79 0.74 0.55 0.63 0.70 1.16 1.23 0.57
0.52 0.68 0.47 0.41 0.28 0.40 0.31 0.33 0.60 0.70 0.83 0.62 0.35 0.60 0.47 0.53 0.67 0.79 0.83 0.56 0.69 1.16 0.95 0.88 1.00 1.24 0.93 1.28 1.28 1.89 1.48 1.56 1.62 1.56 1.43 1.37 1.83 1.97 1.56 1.79 2.00 1.87 1.32 1.18 1.32 1.37 1.71 1.22 1.12 1.28 1.45 1.34 1.38 1.68 1.79 1.82 2.04 2.39 2.32 2.23 3.74 4.02 3.96 3.93 3.79 2.87 2.32 1.59 1.37 1.60 1.37 1.28 0.89 1.10 1.49 1.03 1.21 1.19 0.56 0.63 0.76 0.85 1.06 0.46 1.35 1.58